Copper Harbor, MI

7:31 AM EDT on May 30, 2017 (GMT -0400)
Copper Harbor

Weather History for KP59 - March, 2014

Change the Weather History Date:

Sunday, March 30, 2014

  Actual Average Record
Temperature  
Mean Temperature 36 °F -  
Max Temperature 48 °F 36 °F 53 °F (2005)
Min Temperature 25 °F 24 °F 9 °F (1997)
Degree Days  
Heating Degree Days 28    
Moisture  
Dew Point 21 °F    
Average Humidity 55    
Maximum Humidity 68    
Minimum Humidity 38    
Precipitation  
Precipitation 0.00 in - - ()
Sea Level Pressure  
Sea Level Pressure 30.04 in    
Wind  
Wind Speed 11 mph (SW)    
Max Wind Speed 20 mph    
Max Gust Speed 34 mph    
Averages and records for this station are not official NWS values.
T = Trace of Precipitation, MM = Missing Value Source: NWS Daily Summary

Daily Weather History Graph

Daily Weather History Graph

Search for Another Location

Airport or City:

Trip Planner

Search our weather history database for the weather conditions in past years. The results will help you decide how hot, cold, wet, or windy it might be!

Date:

Astronomy

Mar. 30, 2014 Rise Set
Actual Time 7:34 AM EDT 8:18 PM EDT
Civil Twilight 7:03 AM EDT 8:49 PM EDT
Nautical Twilight 6:26 AM EDT 9:26 PM EDT
Astronomical Twilight 5:47 AM EDT 10:05 PM EDT
Moon 7:20 AM EDT 8:33 PM EDT
Length of Visible Light 13h 46m
Length of Day
12h 44m
Waning Crescent, 0% of the Moon is Illuminated
Mar 30
Waning Crescent
Mar 30
New
Apr 7
First Quarter
Apr 15
Full
Apr 22
Last Quarter

Hourly Weather History & Observations

Time (EDT) Temp. Windchill Dew Point Humidity Pressure Visibility Wind Dir Wind Speed Gust Speed Precip Events Conditions
12:51 AM 25.0 °F 11.7 °F 10.9 °F 55% 30.20 in - SW 17.3 mph 23.0 mph N/A   Unknown
1:51 AM 27.0 °F 16.1 °F 12.9 °F 56% 30.19 in - SW 12.7 mph 25.3 mph N/A   Unknown
2:51 AM 27.0 °F 15.6 °F 15.1 °F 61% 30.16 in - SW 13.8 mph 23.0 mph N/A   Unknown
3:51 AM 26.1 °F 16.2 °F 16.0 °F 66% 30.18 in - WSW 10.4 mph - N/A   Unknown
4:51 AM 28.0 °F 18.6 °F 18.0 °F 66% 30.14 in - SW 10.4 mph 18.4 mph N/A   Unknown
5:51 AM 28.9 °F 19.2 °F 18.0 °F 64% 30.12 in - SW 11.5 mph 21.9 mph N/A   Unknown
6:51 AM 28.0 °F 17.5 °F 18.0 °F 66% 30.11 in - SW 12.7 mph 24.2 mph N/A   Unknown
7:51 AM 28.0 °F 21.7 °F 18.0 °F 66% 30.10 in - SW 5.8 mph - N/A   Unknown
8:51 AM 30.9 °F 24.3 °F 19.0 °F 61% 30.09 in - SW 6.9 mph - N/A   Unknown
9:51 AM 32.0 °F 22.1 °F 17.1 °F 54% 30.01 in - SSW 13.8 mph 27.6 mph N/A   Unknown
10:51 AM 36.0 °F 25.6 °F 18.0 °F 48% 29.99 in - SSW 18.4 mph 34.5 mph N/A   Unknown
11:51 AM 36.0 °F 25.3 °F 21.0 °F 55% 29.96 in - SW 19.6 mph 29.9 mph N/A   Unknown
12:51 PM 39.0 °F 32.8 °F 21.9 °F 50% 29.98 in - WSW 9.2 mph 23.0 mph N/A   Unknown
1:51 PM 43.0 °F 36.8 °F 24.1 °F 47% 29.96 in - SW 11.5 mph 19.6 mph N/A   Unknown
2:51 PM 46.0 °F 43.1 °F 25.0 °F 44% 29.95 in - Variable 5.8 mph - N/A   Unknown
3:51 PM 48.0 °F - 24.1 °F 39% 29.94 in - Variable 5.8 mph 16.1 mph N/A   Unknown
4:51 PM 48.0 °F - 24.1 °F 39% 29.94 in - Variable 4.6 mph - N/A   Unknown
5:51 PM 48.9 °F - 24.1 °F 38% 29.95 in - SSW 3.5 mph - N/A   Unknown
6:51 PM 48.0 °F - 25.0 °F 41% 29.96 in - South 3.5 mph - N/A   Unknown
7:51 PM 45.0 °F - 26.1 °F 48% 29.98 in - Calm Calm - N/A   Unknown
8:51 PM 39.9 °F - 27.0 °F 60% 29.99 in - Calm Calm - N/A   Unknown
9:51 PM 37.9 °F 34.4 °F 28.0 °F 68% 30.00 in - Variable 4.6 mph - N/A   Unknown
10:51 PM 37.9 °F - 28.0 °F 68% 30.00 in - Calm Calm - N/A   Unknown
11:51 PM 37.9 °F - 28.0 °F 68% 30.02 in - Calm Calm - N/A   Unknown